Location: Unspecified
(48.5539°N, 71.6350°W)
Time: 22:53:12
(UTC-05:00)

ISS - All Passes

Search period start: 25 February 2018 00:00
Search period end: 07 March 2018 00:00
Orbit: 403 x 406 km, 51.6° (Epoch: 26 February)

Date Brightness Start Highest point End Pass type
(mag) Time Alt. Az. Time Alt. Az. Time Alt. Az.
25 Feb - 05:53:45 10° SSE 05:55:11 12° SE 05:56:38 10° ESE visible
25 Feb - 07:27:54 10° SW 07:31:08 62° SSE 07:34:23 10° ENE daylight
25 Feb - 09:04:30 10° W 09:07:42 50° N 09:10:55 10° ENE daylight
25 Feb - 10:41:15 10° WNW 10:44:29 57° NNE 10:47:43 10° E daylight
25 Feb - 12:17:48 10° WNW 12:20:56 42° SSW 12:24:03 10° SE daylight
26 Feb - 06:35:54 10° SW 06:38:59 39° SSE 06:42:04 10° ENE daylight
26 Feb - 08:12:09 10° W 08:15:24 60° NNW 08:18:39 10° ENE daylight
26 Feb - 09:48:58 10° WNW 09:52:10 49° N 09:55:22 10° E daylight
26 Feb - 11:25:30 10° WNW 11:28:46 68° SSW 11:32:01 10° ESE daylight
26 Feb - 13:03:01 10° WSW 13:04:46 14° SW 13:06:30 10° SSW daylight
27 Feb - 05:44:10 10° SSW 05:46:53 24° SE 05:49:36 10° E visible
27 Feb - 07:19:50 10° WSW 07:23:07 79° NNW 07:26:24 10° ENE daylight
27 Feb - 08:56:39 10° WNW 08:59:50 46° N 09:03:01 10° ENE daylight
27 Feb - 10:33:15 10° WNW 10:36:32 83° NNE 10:39:49 10° ESE daylight
27 Feb - 12:10:06 10° W 12:12:44 22° SW 12:15:21 10° SSE daylight
28 Feb - 04:52:54 10° S 04:54:50 15° SE 04:56:47 10° E visible
28 Feb - 06:27:36 10° WSW 06:30:52 72° SSE 06:34:08 10° ENE daylight
28 Feb - 08:04:17 10° W 08:07:29 48° N 08:10:41 10° ENE daylight
28 Feb - 09:40:59 10° WNW 09:44:15 62° NNE 09:47:29 10° E daylight
28 Feb - 11:17:35 10° WNW 11:20:38 36° SSW 11:23:40 10° SE daylight
01 Mar - 05:35:30 10° SW 05:38:39 46° SSE 05:41:49 10° ENE visible
01 Mar - 07:11:54 10° W 07:15:08 56° N 07:18:22 10° ENE daylight
01 Mar - 08:48:41 10° WNW 08:51:55 51° N 08:55:07 10° E daylight
01 Mar - 10:25:13 10° WNW 10:28:27 58° SSW 10:31:40 10° SE daylight
01 Mar - 12:03:14 10° WSW 12:04:22 11° SW 12:05:28 10° SSW daylight
02 Mar - 04:43:37 10° SSW 04:46:30 28° SE 04:49:23 10° E visible
02 Mar - 06:19:31 10° WSW 06:22:47 71° NNW 06:26:04 10° ENE daylight
02 Mar - 07:56:21 10° WNW 07:59:32 47° N 08:02:43 10° ENE daylight
02 Mar - 09:32:55 10° WNW 09:36:12 87° SSW 09:39:29 10° ESE daylight
02 Mar - 11:09:56 10° W 11:12:19 19° SW 11:14:43 10° S daylight
03 Mar - 03:52:06 10° S 03:54:23 18° SE 03:56:41 10° E visible
03 Mar - 05:27:12 10° WSW 05:30:29 83° SSE 05:33:47 10° ENE visible
03 Mar - 07:03:57 10° W 07:07:08 47° N 07:10:20 10° ENE daylight
03 Mar - 08:40:37 10° WNW 08:43:54 68° NNE 08:47:09 10° E daylight
03 Mar - 10:17:17 10° W 10:20:13 30° SW 10:23:07 10° SSE daylight
04 Mar - 03:01:37 10° SSE 03:02:21 11° SE 03:03:03 10° ESE visible
04 Mar - 04:35:01 10° SW 04:38:13 54° SSE 04:41:26 10° ENE visible
04 Mar - 06:11:32 10° W 06:14:45 52° N 06:17:58 10° ENE daylight
04 Mar - 07:48:17 10° WNW 07:51:31 54° N 07:54:45 10° E daylight
04 Mar - 09:24:50 10° WNW 09:28:01 49° SSW 09:31:11 10° SE daylight
05 Mar - 03:43:00 10° SSW 03:46:00 34° SE 03:49:00 10° E visible
05 Mar - 05:19:06 10° W 05:22:22 65° NNW 05:25:38 10° ENE visible
05 Mar - 06:55:55 10° WNW 06:59:07 48° N 07:02:19 10° E daylight
05 Mar - 08:32:28 10° WNW 08:35:45 77° SSW 08:39:00 10° ESE daylight
05 Mar - 10:09:42 10° W 10:11:48 16° SW 10:13:53 10° S daylight
06 Mar - 02:51:18 10° SSW 02:53:50 21° SE 02:56:23 10° E visible
06 Mar - 04:26:43 10° WSW 04:30:00 87° NNW 04:33:18 10° ENE visible
06 Mar - 06:03:30 10° WNW 06:06:42 46° N 06:09:52 10° ENE daylight
06 Mar - 07:40:08 10° WNW 07:43:25 76° NNE 07:46:41 10° ESE daylight
06 Mar - 09:16:52 10° W 09:19:40 26° SW 09:22:26 10° SSE daylight
